Weather in Nürburg

Germany     50°20′33″N   6°57′08″E
temp.,
°C
wind,
m/s
gust,
m/s
humid.,
%
clouds,
%
prec.,
mm/h
press.,
hPa
HPBL,
m
26 october, tue
tue2623:00+9wsw41088100 0.0 1020603
02:00+8wsw31194100 0.0 1020436
05:00+6sw2109795 0.0 1021277
08:00+8wsw4994100 0.1 1021444
11:00+9wsw588031 0.0 1022519
14:00+12wsw5867100 0.0 1022883
17:00+11sw4875100 0.0 1022857
20:00+8wsw31089100 0.0 1024394
27 october, wed
wed2723:00+7sw289272 0.0 1025195
02:00+7sw279748 0.0 1025139
05:00+7sw249740 0.0 102594
08:00+7ssw2597100 0.0 1025109
11:00+11sw378023 0.0 1025321
14:00+14ssw456859 0.0 1024636
17:00+13sw3578100 0.0 1023398
20:00+9wsw1194100 0.0 102412
28 october, thu
thu2823:00+8ssw229598 0.0 102322
02:00+7ssw1195100 0.0 102216
05:00+7s1195100 0.0 102119
08:00+6s119314 0.0 102114
11:00+10s24760 0.0 1020242
14:00+14s35590 0.0 1018598
17:00+13s37670 0.0 1016431
20:00+7ssw249298 0.0 101767
29 october, fri
fri2923:00+7s23946 0.0 101652
02:00+6ssw239387 0.0 101547
05:00+6s2591100 0.0 101496
08:00+5s249186 0.0 101488
11:00+11ssw41565100 0.0 1013587
14:00+15ssw5115299 0.0 1012979
17:00+13s41063100 0.0 1011635
20:00+10s2678100 0.0 1012184
30 october, sat
sat3023:00+10ssw41375100 0.0 1012633
02:00+10ssw31484100 0.0 1012690
05:00+10ssw41290100 0.0 1012593
08:00+9s31093100 0.0 1012349
11:00+11s31083100 0.0 1012415
14:00+12ssw51372100 0.0 10121022
17:00+12ssw71571100 0.1 10121151
20:00+11ssw61483100 0.1 1012997